Time,TemperatureF,DewpointF,PressureIn,WindDirection,WindDirectionDegrees,WindSpeedMPH,WindSpeedGustMPH,Humidity,HourlyPrecipIn,Conditions,Clouds,dailyrainin,SoftwareType,DateUTC
2013-01-06 00:02:00,36.5,25.0,30.13,WNW,299,0.0,3.0,64,0.00,,,0.00,weatherlink.com 1.10,2013-01-06 05:02:00,
2013-01-06 00:16:00,35.9,26.0,30.12,WNW,299,0.0,0.0,67,0.00,,,0.00,weatherlink.com 1.10,2013-01-06 05:16:00,
2013-01-06 00:31:00,35.1,26.0,30.10,SE,135,0.0,3.0,70,0.00,,,0.00,weatherlink.com 1.10,2013-01-06 05:31:00,
2013-01-06 00:46:00,34.6,25.0,30.11,WNW,300,0.0,9.0,68,0.00,,,0.00,weatherlink.com 1.10,2013-01-06 05:46:00,
2013-01-06 01:01:00,34.4,25.0,30.11,ESE,122,0.0,4.0,69,0.00,,,0.00,weatherlink.com 1.10,2013-01-06 06:01:00,
2013-01-06 01:16:00,34.3,25.0,30.10,ESE,122,0.0,1.0,69,0.00,,,0.00,weatherlink.com 1.10,2013-01-06 06:16:00,
2013-01-06 01:31:00,34.2,25.0,30.10,ESE,120,1.0,1.0,70,0.00,,,0.00,weatherlink.com 1.10,2013-01-06 06:31:00,
2013-01-06 01:46:00,34.3,25.0,30.10,NW,308,2.0,3.0,70,0.00,,,0.00,weatherlink.com 1.10,2013-01-06 06:46:00,
2013-01-06 02:01:00,34.3,25.0,30.10,NW,304,1.0,5.0,70,0.00,,,0.00,weatherlink.com 1.10,2013-01-06 07:01:00,
2013-01-06 02:16:00,34.2,26.0,30.10,WNW,290,1.0,3.0,71,0.00,,,0.00,weatherlink.com 1.10,2013-01-06 07:16:00,
2013-01-06 02:31:00,33.9,25.0,30.10,WNW,290,0.0,3.0,71,0.00,,,0.00,weatherlink.com 1.10,2013-01-06 07:31:00,
2013-01-06 02:46:00,33.7,26.0,30.09,WNW,290,0.0,0.0,72,0.00,,,0.00,weatherlink.com 1.10,2013-01-06 07:46:00,
2013-01-06 03:01:00,33.5,26.0,30.09,WNW,290,0.0,0.0,73,0.00,,,0.00,weatherlink.com 1.10,2013-01-06 08:01:00,
2013-01-06 03:16:00,33.5,26.0,30.09,WNW,290,0.0,0.0,74,0.00,,,0.00,weatherlink.com 1.10,2013-01-06 08:16:00,
2013-01-06 03:31:00,33.5,26.0,30.08,WNW,290,0.0,0.0,74,0.00,,,0.00,weatherlink.com 1.10,2013-01-06 08:31:00,
2013-01-06 03:46:00,33.3,26.0,30.08,WNW,290,0.0,0.0,75,0.00,,,0.00,weatherlink.com 1.10,2013-01-06 08:46:00,
2013-01-06 04:01:00,33.0,26.0,30.08,WNW,290,0.0,0.0,74,0.00,,,0.00,weatherlink.com 1.10,2013-01-06 09:01:00,
2013-01-06 04:16:00,32.8,25.0,30.07,WNW,290,0.0,0.0,74,0.00,,,0.00,weatherlink.com 1.10,2013-01-06 09:16:00,
2013-01-06 04:31:00,32.5,25.0,30.07,WNW,290,0.0,0.0,75,0.00,,,0.00,weatherlink.com 1.10,2013-01-06 09:31:00,
2013-01-06 04:46:00,31.9,25.0,30.07,WNW,290,0.0,0.0,76,0.00,,,0.00,weatherlink.com 1.10,2013-01-06 09:46:00,
2013-01-06 05:02:00,31.2,25.0,30.06,WNW,290,0.0,0.0,77,0.00,,,0.00,weatherlink.com 1.10,2013-01-06 10:02:00,
2013-01-06 05:16:00,30.4,25.0,30.06,WNW,290,0.0,0.0,79,0.00,,,0.00,weatherlink.com 1.10,2013-01-06 10:16:00,
2013-01-06 05:32:00,29.5,24.0,30.05,WNW,290,0.0,0.0,81,0.00,,,0.00,weatherlink.com 1.10,2013-01-06 10:32:00,
2013-01-06 05:47:00,28.7,24.0,30.05,WNW,290,0.0,0.0,82,0.00,,,0.00,weatherlink.com 1.10,2013-01-06 10:47:00,
2013-01-06 06:02:00,28.0,24.0,30.06,WNW,290,0.0,0.0,84,0.00,,,0.00,weatherlink.com 1.10,2013-01-06 11:02:00,
2013-01-06 06:17:00,27.3,23.0,30.06,WNW,290,0.0,0.0,84,0.00,,,0.00,weatherlink.com 1.10,2013-01-06 11:17:00,
2013-01-06 06:32:00,26.7,23.0,30.07,WNW,290,1.0,2.0,85,0.00,,,0.00,weatherlink.com 1.10,2013-01-06 11:32:00,
2013-01-06 06:47:00,26.7,23.0,30.07,WNW,290,0.0,0.0,86,0.00,,,0.00,weatherlink.com 1.10,2013-01-06 11:47:00,
2013-01-06 07:02:00,27.0,23.0,30.07,WNW,290,0.0,2.0,86,0.00,,,0.00,weatherlink.com 1.10,2013-01-06 12:02:00,
2013-01-06 07:18:00,27.4,24.0,30.07,WNW,290,0.0,0.0,86,0.00,,,0.00,weatherlink.com 1.10,2013-01-06 12:18:00,
2013-01-06 07:32:00,27.8,24.0,30.07,WNW,290,0.0,0.0,86,0.00,,,0.00,weatherlink.com 1.10,2013-01-06 12:32:00,
2013-01-06 07:48:00,28.1,25.0,30.08,WNW,290,0.0,0.0,86,0.00,,,0.00,weatherlink.com 1.10,2013-01-06 12:48:00,
2013-01-06 08:02:00,28.6,25.0,30.07,WNW,290,0.0,0.0,85,0.00,,,0.00,weatherlink.com 1.10,2013-01-06 13:02:00,
2013-01-06 08:17:00,29.4,26.0,30.07,WNW,290,0.0,0.0,85,0.00,,,0.00,weatherlink.com 1.10,2013-01-06 13:17:00,
2013-01-06 08:32:00,30.5,26.0,30.07,WNW,290,0.0,0.0,84,0.00,,,0.00,weatherlink.com 1.10,2013-01-06 13:32:00,
2013-01-06 08:47:00,31.4,27.0,30.07,WNW,290,0.0,0.0,84,0.00,,,0.00,weatherlink.com 1.10,2013-01-06 13:47:00,
2013-01-06 09:02:00,32.3,28.0,30.07,WNW,290,0.0,0.0,83,0.00,,,0.00,weatherlink.com 1.10,2013-01-06 14:02:00,
2013-01-06 09:17:00,33.8,28.0,30.07,ENE,67,1.0,2.0,80,0.00,,,0.00,weatherlink.com 1.10,2013-01-06 14:17:00,
2013-01-06 09:32:00,37.1,29.0,30.07,ESE,119,1.0,2.0,73,0.00,,,0.00,weatherlink.com 1.10,2013-01-06 14:32:00,
2013-01-06 09:47:00,38.3,29.0,30.07,East,95,0.0,1.0,69,0.00,,,0.00,weatherlink.com 1.10,2013-01-06 14:47:00,
2013-01-06 10:02:00,41.0,30.0,30.07,SE,140,2.0,2.0,64,0.00,,,0.00,weatherlink.com 1.10,2013-01-06 15:02:00,
2013-01-06 10:17:00,43.2,29.0,30.07,North,5,0.0,3.0,58,0.00,,,0.00,weatherlink.com 1.10,2013-01-06 15:17:00,
2013-01-06 10:32:00,46.5,29.0,30.06,ENE,59,1.0,2.0,50,0.00,,,0.00,weatherlink.com 1.10,2013-01-06 15:32:00,
2013-01-06 10:47:00,47.2,28.0,30.06,SSE,150,1.0,4.0,48,0.00,,,0.00,weatherlink.com 1.10,2013-01-06 15:47:00,
2013-01-06 11:02:00,47.3,28.0,30.06,NW,310,2.0,4.0,48,0.00,,,0.00,weatherlink.com 1.10,2013-01-06 16:02:00,
2013-01-06 11:17:00,46.3,27.0,30.05,SSE,155,1.0,5.0,48,0.00,,,0.00,weatherlink.com 1.10,2013-01-06 16:17:00,
2013-01-06 11:32:00,45.1,27.0,30.04,NNW,328,5.0,7.0,49,0.00,,,0.00,weatherlink.com 1.10,2013-01-06 16:32:00,
2013-01-06 11:47:00,44.9,27.0,30.03,NE,43,0.0,7.0,50,0.00,,,0.00,weatherlink.com 1.10,2013-01-06 16:47:00,
2013-01-06 12:02:00,44.8,27.0,30.02,NNW,329,1.0,6.0,50,0.00,,,0.00,weatherlink.com 1.10,2013-01-06 17:02:00,
2013-01-06 12:17:00,45.7,28.0,30.00,East,89,3.0,4.0,50,0.00,,,0.00,weatherlink.com 1.10,2013-01-06 17:17:00,
2013-01-06 12:33:00,46.4,28.0,30.00,WNW,299,4.0,7.0,49,0.00,,,0.00,weatherlink.com 1.10,2013-01-06 17:33:00,
2013-01-06 12:48:00,46.5,28.0,29.99,NW,321,5.0,6.0,48,0.00,,,0.00,weatherlink.com 1.10,2013-01-06 17:48:00,
2013-01-06 13:18:00,46.4,28.0,29.98,NE,35,1.0,7.0,49,0.00,,,0.00,weatherlink.com 1.10,2013-01-06 18:18:00,
2013-01-06 13:33:00,46.3,28.0,29.97,NW,308,3.0,9.0,50,0.00,,,0.00,weatherlink.com 1.10,2013-01-06 18:33:00,
2013-01-06 13:48:00,46.5,28.0,29.97,North,351,0.0,6.0,49,0.00,,,0.00,weatherlink.com 1.10,2013-01-06 18:48:00,
2013-01-06 14:03:00,46.8,29.0,29.97,WNW,301,0.0,4.0,50,0.00,,,0.00,weatherlink.com 1.10,2013-01-06 19:03:00,
2013-01-06 14:18:00,46.7,28.0,29.97,WNW,300,6.0,9.0,48,0.00,,,0.00,weatherlink.com 1.10,2013-01-06 19:18:00,
2013-01-06 14:33:00,46.3,27.0,29.97,NNW,327,5.0,7.0,48,0.00,,,0.00,weatherlink.com 1.10,2013-01-06 19:33:00,
2013-01-06 15:03:00,45.9,28.0,29.97,NNW,344,0.0,8.0,49,0.00,,,0.00,weatherlink.com 1.10,2013-01-06 20:03:00,
2013-01-06 15:18:00,45.7,27.0,29.97,SSW,203,1.0,5.0,49,0.00,,,0.00,weatherlink.com 1.10,2013-01-06 20:18:00,
2013-01-06 15:33:00,45.5,28.0,29.97,NNW,337,0.0,4.0,51,0.00,,,0.00,weatherlink.com 1.10,2013-01-06 20:33:00,
2013-01-06 15:48:00,45.3,28.0,29.97,West,263,0.0,4.0,51,0.00,,,0.00,weatherlink.com 1.10,2013-01-06 20:48:00,
2013-01-06 16:03:00,45.0,28.0,29.97,WSW,240,0.0,5.0,51,0.00,,,0.00,weatherlink.com 1.10,2013-01-06 21:03:00,
2013-01-06 16:18:00,44.6,27.0,29.97,NW,311,2.0,4.0,51,0.00,,,0.00,weatherlink.com 1.10,2013-01-06 21:18:00,
2013-01-06 16:33:00,44.3,27.0,29.97,SW,214,0.0,4.0,51,0.00,,,0.00,weatherlink.com 1.10,2013-01-06 21:33:00,
2013-01-06 16:48:00,44.0,28.0,29.98,NW,309,2.0,3.0,53,0.00,,,0.00,weatherlink.com 1.10,2013-01-06 21:48:00,
2013-01-06 17:03:00,43.6,28.0,29.98,NW,324,0.0,3.0,54,0.00,,,0.00,weatherlink.com 1.10,2013-01-06 22:03:00,
2013-01-06 17:18:00,43.2,28.0,29.99,WNW,303,1.0,3.0,55,0.00,,,0.00,weatherlink.com 1.10,2013-01-06 22:18:00,
2013-01-06 17:33:00,42.9,28.0,29.99,NW,306,2.0,2.0,56,0.00,,,0.00,weatherlink.com 1.10,2013-01-06 22:33:00,
2013-01-06 17:48:00,42.9,28.0,30.00,WNW,290,2.0,4.0,56,0.00,,,0.00,weatherlink.com 1.10,2013-01-06 22:48:00,
2013-01-06 18:03:00,42.8,28.0,30.00,WNW,298,1.0,3.0,56,0.00,,,0.00,weatherlink.com 1.10,2013-01-06 23:03:00,
2013-01-06 18:18:00,42.8,28.0,30.01,WNW,300,1.0,4.0,56,0.00,,,0.00,weatherlink.com 1.10,2013-01-06 23:18:00,
2013-01-06 18:33:00,42.8,28.0,30.02,WNW,298,1.0,4.0,56,0.00,,,0.00,weatherlink.com 1.10,2013-01-06 23:33:00,
2013-01-06 18:48:00,42.7,28.0,30.02,NW,312,0.0,3.0,56,0.00,,,0.00,weatherlink.com 1.10,2013-01-06 23:48:00,
2013-01-06 19:03:00,42.8,28.0,30.03,WNW,293,1.0,7.0,56,0.00,,,0.00,weatherlink.com 1.10,2013-01-07 00:03:00,
2013-01-06 19:18:00,42.8,28.0,30.03,WNW,290,1.0,3.0,56,0.00,,,0.00,weatherlink.com 1.10,2013-01-07 00:18:00,
2013-01-06 19:33:00,42.7,28.0,30.03,NW,304,0.0,3.0,57,0.00,,,0.00,weatherlink.com 1.10,2013-01-07 00:33:00,
2013-01-06 19:48:00,42.7,28.0,30.03,NW,316,0.0,4.0,57,0.00,,,0.00,weatherlink.com 1.10,2013-01-07 00:48:00,
2013-01-06 20:03:00,42.5,28.0,30.03,NW,317,0.0,2.0,58,0.00,,,0.00,weatherlink.com 1.10,2013-01-07 01:03:00,
2013-01-06 20:18:00,42.3,28.0,30.03,WNW,286,4.0,6.0,58,0.00,,,0.00,weatherlink.com 1.10,2013-01-07 01:18:00,
2013-01-06 20:33:00,42.2,29.0,30.03,NW,320,4.0,6.0,59,0.00,,,0.00,weatherlink.com 1.10,2013-01-07 01:33:00,
2013-01-06 20:48:00,42.0,28.0,30.03,WNW,298,3.0,4.0,59,0.00,,,0.00,weatherlink.com 1.10,2013-01-07 01:48:00,
2013-01-06 21:03:00,41.8,28.0,30.04,WNW,295,3.0,5.0,59,0.00,,,0.00,weatherlink.com 1.10,2013-01-07 02:03:00,
2013-01-06 21:18:00,41.7,28.0,30.04,WNW,293,3.0,5.0,59,0.00,,,0.00,weatherlink.com 1.10,2013-01-07 02:18:00,
2013-01-06 21:33:00,41.4,28.0,30.04,NW,307,3.0,4.0,60,0.00,,,0.00,weatherlink.com 1.10,2013-01-07 02:33:00,
2013-01-06 21:48:00,41.2,28.0,30.04,WNW,296,1.0,5.0,60,0.00,,,0.00,weatherlink.com 1.10,2013-01-07 02:48:00,
2013-01-06 22:03:00,41.0,28.0,30.05,WNW,300,0.0,3.0,61,0.00,,,0.00,weatherlink.com 1.10,2013-01-07 03:03:00,
2013-01-06 22:18:00,40.8,29.0,30.05,NW,304,1.0,3.0,62,0.00,,,0.00,weatherlink.com 1.10,2013-01-07 03:18:00,
2013-01-06 22:33:00,41.0,29.0,30.05,NNW,329,2.0,10.0,62,0.00,,,0.00,weatherlink.com 1.10,2013-01-07 03:33:00,
2013-01-06 22:48:00,41.2,29.0,30.06,West,279,4.0,6.0,62,0.00,,,0.00,weatherlink.com 1.10,2013-01-07 03:48:00,
2013-01-06 23:03:00,41.4,30.0,30.06,WNW,294,3.0,7.0,63,0.00,,,0.00,weatherlink.com 1.10,2013-01-07 04:03:00,
2013-01-06 23:18:00,41.6,30.0,30.07,WNW,300,4.0,9.0,63,0.00,,,0.00,weatherlink.com 1.10,2013-01-07 04:18:00,
2013-01-06 23:33:00,41.6,30.0,30.08,WNW,290,2.0,9.0,64,0.00,,,0.00,weatherlink.com 1.10,2013-01-07 04:33:00,
2013-01-06 23:48:00,41.4,30.0,30.09,WNW,301,1.0,5.0,65,0.00,,,0.00,weatherlink.com 1.10,2013-01-07 04:48:00,